Flag for Germany Weather past 2 weeks in Lehrte, Lower Saxony, Germany

Now
65 °F

Sprinkles. Low clouds.


Feels Like: 65 °F
Forecast: 53 / 62 °F
Wind: 5 mph from West

Location: Hannover

Current Time: Jul 8, 2015 at 5:09:30 AM

Latest Report: Jul 8, 2015 at 4:00 AM


Visibility: 13 mi

Pressure: 29.68 "Hg

Humidity: 74%

Dew point: 56 °F

Location of LehrteLocation

Historic Weather in Lehrte — Graph

°F

Lehrte temperature yesterday

Maximum temperature yesterday: 84 °F (at 3:00 PM)
Minimum temperature yesterday: 58 °F (at 4:00 AM)
Average temperature yesterday: 71 °F

Past Weeks' High & Low Weather Summary

 TemperatureHumidityPressure
High97 °F (Jul 4, 4:00 PM)96% (Jun 23, 4:00 AM)30.28 "Hg (Jun 23, 4:00 AM)
Low50 °F (Jun 23, 6:00 AM)30% (Jul 2, 8:00 PM)29.65 "Hg (Jul 7, 9:00 PM)
Average69 °F66%30.08 "Hg
* Reported Jun 23 4:00 AM — Jul 8 4:00 AM, Lehrte, Weather by CustomWeather, © 2015

Note: Actual official high and low records may vary slightly from our data, if they occured in-between our weather recording intervals... More about our weather records

Advertising

Lehrte weather history for previous 24 hours

 ConditionsComfort  
Time TempWeatherWind HumidityBarometerVisibility
4:00 AM
Wed, Jul 8
65 °FMild.5 mph74%29.68 "HgN/A
3:00 AM65 °FOvercast.3 mph78%29.68 "Hg22 mi
2:00 AM65 °FOvercast.3 mph75%29.67 "Hg22 mi
1:00 AM66 °FOvercast.5 mph73%29.65 "Hg22 mi
10:00 PM
Tue, Jul 7
71 °FOvercast.6 mph80%29.65 "Hg22 mi
9:00 PM70 °FOvercast.6 mph88%29.65 "Hg22 mi
8:00 PM70 °FThunderstorms. Overcast.5 mph89%29.68 "Hg19 mi
7:00 PM73 °FThundershowers. Low clouds.3 mph72%29.74 "Hg7 mi
6:00 PM81 °FOvercast.1 mph55%29.69 "Hg25 mi
5:00 PM84 °FOvercast.2 mph40%29.72 "Hg25 mi
4:00 PM83 °FOvercast.5 mph38%29.75 "Hg25 mi
3:00 PM84 °FOvercast.7 mph38%29.78 "Hg25 mi
2:00 PM82 °FPartly sunny.7 mph39%29.82 "Hg25 mi
1:00 PM81 °FPartly sunny.6 mph37%29.85 "Hg25 mi
12:00 PM78 °FScattered clouds.5 mph44%29.88 "Hg25 mi
10:00 AM75 °FPassing clouds.5 mph50%29.92 "Hg25 mi
9:00 AM71 °FSunny.5 mph57%29.94 "Hg25 mi
8:00 AM67 °FSunny.5 mph63%29.97 "Hg25 mi
7:00 AM64 °FSunny.3 mph72%29.99 "Hg16 mi
6:00 AM58 °FFog.1 mph85%30.00 "Hg16 mi
Weather by CustomWeather, © 2015

See weather overviewHow to use our weather pages